STARLINK-38412, 100640

Orbit data source: Space-Track

STARLINK-38412, 100640 is a payload satellite owned by SpaceX/Seattle (US) in LEO that was launched on Sun, 06 Sep 2026 UTC launched from the Air Force Western Test Range (AFWTR). Payload-class satellites include a variety of spacecraft equipped with specific instruments for various scientific and technological missions. These include communications satellites like Starlink; space stations such as the ISS; scientific satellites like the Hubble; Earth observation satellites from companies like Planet Labs, Umbra, and HawkEye 360; GPS; miniature CubeSats for education and research; and military/defense satellites.

Not visible in the next 10 days
Identifier
100640, 2026-204AB
Orbit
LEO
Country
Flag of USUS
Related business
Manufacturer
SpaceX/Seattle
Mission
Operational spacecraft
Bus & Motor
STARLINK V2MO, Unknown motor
Mass
575 kg wet, ~530 kg dry
Launch date (UTC)
2026-09-06 (5 days ago)
Launch vehicle
Unknown
Launch site
Air Force Western Test Range (AFWTR)
Object type
Payload
Rocket body
Debris
Shape & HBR
BOX + PAN, 17.7 m
Radar Cross Section
RCS unknown

Expand to show TLE details & history
Last TLE update: 22 hours ago

TLE from 22 hours ago
0 STARLINK-38412
1 A0640U          26253.57155423 -.01131551  40322-3 -25031-2 0  9996
2 A0640  69.9976 266.2611 0004537 274.0957  85.9734 15.97800046   641
Epoch: 2026-09-10T13:43Z
TLE epoch observation values (Epoch: 2026-09-10T13:43:02.285Z)
Latitude
-0.00004°
Longitude
70.89422°
Altitude
282.843 km
Speed
7.738 km/s
True Right ascension
17h 45m 02s
True Declination
0° 00' 00"
Sunlit
Object was in daylight at epoch
Visualization orbit readout
Latitude
Unknown
Longitude
Unknown
Altitude
Unknown
Speed
Unknown
Apparent Right ascension
Unknown
Apparent Declination
Unknown
Sunlit
N/A
Visualization observer readout
Local Sidereal Time
03:48:44
Azimuth
Unknown
Elevation
Unknown
Doppler factor
Unknown
Orbital elements
Apogee altitude
281.402 km
Perigee altitude
275.362 km
Semi-major axis
6,656.519 km
Eccentricity
0.00045
Inclination
69.9976°
RAAN
266.2611°
Arg. of periapsis
274.0957°
True anomaly
86.02526°
Mean anomaly
85.9734°
Eccentric anomaly
85.99933°
Mean motion
3.99643 °/min
Orbital period
90.08 mins
BSTAR
-0.0025031
Loading maneuver chart data...
Computing Atmospheric mass density...
Loading historical data...
Loading historical data...
Loading historical data...
Loading historical data...
Loading historical data...
Loading historical data...
Loading historical data...

Documentation

Showing up to 5 results
|